Powrót do katalogu

SL-12 DEB

LostHEO
NORAD 29418·DEBRIS·🇷🇺 Russia

Wystrzelony May 31, 1989 z Baikonur Cosmodrome

Loading…

Następne Przeloty (najbliższe 24 godziny)

TLE

NieaktualneSource: Space-Track

Epoka: Jul 23, 2006, 10:48 UTC

1 29418U 89039BW  06204.45026987 +.00000022 +00000-0 +10000-3 0  9994
2 29418 064.2473 274.5589 5187935 072.6784 333.4085 04.31289076001146

Śledź SL-12 DEB w czasie rzeczywistym z AllMySat

Download on the App Store